TimeCET,TemperatureF,Dew PointF,Humidity,Sea Level PressureIn,VisibilityMPH,Wind Direction,Wind SpeedMPH,Gust SpeedMPH,PrecipitationIn,Events,Conditions,WindDirDegrees,DateUTC
12:00 AM,55.4,37.4,51,30.01,6.2,NNW,10.4,-,N/A,,Partly Cloudy,330,2012-12-04 23:00:00
12:30 AM,55.4,37.4,51,30.01,6.2,WNW,6.9,-,N/A,,Partly Cloudy,300,2012-12-04 23:30:00
1:00 AM,56,29,23,30.01,12,NW,17.3,,,,Scattered Clouds,310,2012-12-05 00:00:00
1:00 AM,57.2,33.8,41,30.01,6.2,NW,18.4,32.2,N/A,,Partly Cloudy,320,2012-12-05 00:00:00
1:30 AM,55.4,35.6,47,30.01,6.2,WNW,10.4,-,N/A,,Partly Cloudy,290,2012-12-05 00:30:00
2:00 AM,53.6,35.6,51,29.98,6.2,NW,9.2,-,N/A,,Partly Cloudy,320,2012-12-05 01:00:00
2:30 AM,51.8,35.6,54,29.98,6.2,NW,2.3,-,N/A,,Partly Cloudy,310,2012-12-05 01:30:00
3:00 AM,51.8,39.2,62,29.98,6.2,Calm,Calm,-,N/A,,Partly Cloudy,0,2012-12-05 02:00:00
3:30 AM,53.6,39.2,58,29.95,-9999.0,West,5.8,-,N/A,,Clear,270,2012-12-05 02:30:00
4:00 AM,53.6,41.0,62,29.95,-9999.0,WNW,5.8,-,N/A,,Clear,300,2012-12-05 03:00:00
4:30 AM,53.6,39.2,58,29.95,-9999.0,WNW,6.9,-,N/A,,Clear,290,2012-12-05 03:30:00
5:00 AM,53.6,39.2,58,29.92,-9999.0,West,6.9,19.6,N/A,,Clear,270,2012-12-05 04:00:00
5:30 AM,53.6,37.4,54,29.92,6.2,West,9.2,-,N/A,,Partly Cloudy,270,2012-12-05 04:30:00
6:00 AM,55.4,37.4,51,29.92,6.2,West,9.2,-,N/A,,Partly Cloudy,280,2012-12-05 05:00:00
6:30 AM,55.4,35.6,47,29.92,6.2,WNW,11.5,-,N/A,,Partly Cloudy,290,2012-12-05 05:30:00
7:00 AM,53,33,34,29.94,16,WNW,9.2,,,,Scattered Clouds,300,2012-12-05 06:00:00
7:00 AM,55.4,37.4,51,29.92,6.2,WNW,12.7,-,N/A,,Partly Cloudy,300,2012-12-05 06:00:00
7:30 AM,55.4,37.4,51,29.95,6.2,WNW,13.8,-,N/A,,Partly Cloudy,300,2012-12-05 06:30:00
8:00 AM,55.4,37.4,51,29.95,6.2,WNW,11.5,-,N/A,,Partly Cloudy,300,2012-12-05 07:00:00
8:30 AM,57.2,35.6,44,29.95,6.2,WNW,15.0,-,N/A,,Partly Cloudy,300,2012-12-05 07:30:00
9:00 AM,57.2,37.4,48,29.95,6.2,NW,13.8,-,N/A,,Partly Cloudy,310,2012-12-05 08:00:00
9:30 AM,57.2,35.6,44,29.95,6.2,NW,15.0,26.5,N/A,,Partly Cloudy,310,2012-12-05 08:30:00
10:00 AM,59.0,37.4,45,29.95,6.2,NW,17.3,-,N/A,,Partly Cloudy,310,2012-12-05 09:00:00
10:30 AM,59.0,39.2,48,29.95,6.2,WNW,19.6,-,N/A,,Partly Cloudy,300,2012-12-05 09:30:00
11:00 AM,59.0,39.2,48,29.98,6.2,NW,20.7,-,N/A,,Partly Cloudy,310,2012-12-05 10:00:00
11:30 AM,59.0,37.4,45,29.98,6.2,NW,19.6,33.4,N/A,,Partly Cloudy,320,2012-12-05 10:30:00
12:00 PM,59.0,35.6,42,29.98,6.2,NW,24.2,-,N/A,,Partly Cloudy,310,2012-12-05 11:00:00
12:30 PM,59.0,39.2,48,29.95,6.2,NW,19.6,-,N/A,,Partly Cloudy,320,2012-12-05 11:30:00
1:00 PM,59,33,26,29.96,19,WNW,13.8,,,,Scattered Clouds,300,2012-12-05 12:00:00
1:00 PM,60.8,39.2,45,29.95,6.2,NW,17.3,-,N/A,,Partly Cloudy,310,2012-12-05 12:00:00
1:30 PM,59.0,37.4,45,29.95,6.2,WNW,19.6,-,N/A,,Scattered Clouds,300,2012-12-05 12:30:00
2:00 PM,59.0,37.4,45,29.95,6.2,NW,24.2,40.3,N/A,,Scattered Clouds,310,2012-12-05 13:00:00
4:00 PM,57.2,37.4,48,29.95,6.2,NW,23.0,-,N/A,,Scattered Clouds,320,2012-12-05 15:00:00
4:30 PM,57.2,37.4,48,29.95,6.2,NW,17.3,-,N/A,,Scattered Clouds,310,2012-12-05 15:30:00
5:00 PM,57.2,39.2,51,29.95,6.2,NNW,18.4,-,N/A,,Scattered Clouds,330,2012-12-05 16:00:00
5:30 PM,57.2,39.2,51,29.95,6.2,NNW,20.7,-,N/A,,Scattered Clouds,330,2012-12-05 16:30:00
6:00 PM,57.2,37.4,48,29.98,6.2,NNW,21.9,33.4,N/A,Rain,Light Rain,330,2012-12-05 17:00:00
6:30 PM,55.4,39.2,54,29.98,6.2,NNW,18.4,29.9,N/A,,Scattered Clouds,330,2012-12-05 17:30:00
7:00 PM,55,35,36,29.99,9,NW,20.7,,,,Partly Cloudy,320,2012-12-05 18:00:00
7:00 PM,57.2,39.2,51,29.98,6.2,NNW,11.5,24.2,N/A,,Scattered Clouds,330,2012-12-05 18:00:00
7:30 PM,55.4,39.2,54,30.01,6.2,NNW,9.2,-,N/A,,Scattered Clouds,330,2012-12-05 18:30:00
8:00 PM,55.4,39.2,54,30.01,6.2,WNW,3.5,-,N/A,,Scattered Clouds,290,2012-12-05 19:00:00
8:30 PM,55.4,39.2,54,30.01,6.2,NW,10.4,-,N/A,,Partly Cloudy,310,2012-12-05 19:30:00
9:00 PM,55.4,39.2,54,30.04,6.2,West,9.2,-,N/A,,Partly Cloudy,270,2012-12-05 20:00:00
9:30 PM,55.4,39.2,54,30.01,6.2,WNW,10.4,-,N/A,,Partly Cloudy,300,2012-12-05 20:30:00
10:00 PM,55.4,39.2,54,30.04,6.2,WNW,6.9,-,N/A,,Partly Cloudy,300,2012-12-05 21:00:00
10:30 PM,55.4,39.2,54,30.01,6.2,West,9.2,-,N/A,,Partly Cloudy,270,2012-12-05 21:30:00
11:00 PM,55.4,39.2,54,30.04,6.2,WNW,18.4,-,N/A,,Partly Cloudy,300,2012-12-05 22:00:00
11:30 PM,55.4,39.2,54,30.04,6.2,NW,13.8,-,N/A,,Partly Cloudy,310,2012-12-05 22:30:00